Weather History for Moncks Corner, SC

Change the Weather History Date:

Thursday, November 22, 2012

  Actual Average (KCHS) Record (KCHS)
Temperature  
Mean Temperature 50 °F 57 °F  
Max Temperature 62 °F 68 °F 83 °F (1942)
Min Temperature 39 °F 46 °F 24 °F (2000)
Degree Days  
Heating Degree Days 14 9  
Month to date heating degree days 144  
Since 1 July heating degree days 213  
Cooling Degree Days 0 1  
Month to date cooling degree days 27  
Year to date cooling degree days 2291  
Moisture  
Dew Point 37 °F    
Average Humidity 64    
Maximum Humidity 93    
Minimum Humidity 27    
Precipitation  
Precipitation 0.00 in 0.08 in 3.15 in (1985)
Month to date precipitation 1.79  
Year to date precipitation 47.28  
Sea Level Pressure  
Sea Level Pressure 30.17 in    
Wind  
Wind Speed 7 mph (North)    
Max Wind Speed 13 mph    
Max Gust Speed 20 mph    
Visibility 8 miles    
Events      
T = Trace of Precipitation, MM = Missing Value Source: NWS Daily Summary

Daily Weather History Graph

Daily Weather History Graph

Search for Another Location

Airport:

Trip Planner

Search our weather history database for the weather conditions in past years. The results will help you decide how hot, cold, wet, or windy it might be!

Date:

Astronomy

Nov. 22, 2012 Rise Set
Actual Time 6:57 AM EST 5:14 PM EST
Civil Twilight 6:31 AM EST 5:41 PM EST
Nautical Twilight 6:01 AM EST 6:11 PM EST
Astronomical Twilight 5:31 AM EST 6:41 PM EST
Moon 1:45 PM EST (11/22) 1:31 AM EST (11/22)
Length of Visible Light 11h 10m
Length of Day
10h 16m
Waxing Gibbous, 71% of the Moon is Illuminated
Nov 22
Waxing Gibbous
Nov 28
Full
Dec 6
Last Quarter
Dec 13
New
Dec 20
First Quarter

Hourly Weather History & Observations

Time (EST) Temp. Windchill Dew Point Humidity Pressure Visibility Wind Dir Wind Speed Gust Speed Precip Events Conditions
12:15 AM 51.8 °F - 39.2 °F 62% 30.13 in 10.0 mi NNE 8.1 mph - N/A   Clear
12:35 AM 51.8 °F - 39.2 °F 62% 30.13 in 7.0 mi NNE 8.1 mph - N/A   Clear
12:55 AM 50.0 °F - 39.2 °F 66% 30.13 in 10.0 mi NNE 8.1 mph - N/A   Clear
1:15 AM 50.0 °F - 37.4 °F 62% 30.13 in 10.0 mi NNE 5.8 mph - N/A   Clear
1:35 AM 50.0 °F - 37.4 °F 62% 30.13 in 7.0 mi NNE 9.2 mph - N/A   Clear
1:55 AM 50.0 °F - 37.4 °F 62% 30.13 in 7.0 mi NNE 6.9 mph - N/A   Clear
2:15 AM 50.0 °F - 37.4 °F 62% 30.13 in 10.0 mi NNE 9.2 mph - N/A   Clear
2:35 AM 50.0 °F - 37.4 °F 62% 30.13 in 10.0 mi NNE 9.2 mph - N/A   Clear
2:55 AM 48.2 °F - 37.4 °F 66% 30.13 in 10.0 mi NNE 6.9 mph - N/A   Clear
3:15 AM 50.0 °F - 37.4 °F 62% 30.13 in 10.0 mi NNE 6.9 mph - N/A   Clear
3:35 AM 48.2 °F - 37.4 °F 66% 30.13 in 10.0 mi North 6.9 mph - N/A   Clear
3:55 AM 48.2 °F - 39.2 °F 71% 30.13 in 7.0 mi North 4.6 mph - N/A   Clear
4:15 AM 48.2 °F - 39.2 °F 71% 30.13 in 10.0 mi North 4.6 mph - N/A   Clear
4:35 AM 46.4 °F 43.5 °F 39.2 °F 76% 30.14 in 7.0 mi North 5.8 mph - N/A   Clear
4:55 AM 46.4 °F 44.3 °F 39.2 °F 76% 30.15 in 10.0 mi North 4.6 mph - N/A   Clear
5:15 AM 46.4 °F 43.5 °F 39.2 °F 76% 30.15 in 7.0 mi North 5.8 mph - N/A   Clear
5:35 AM 46.4 °F 44.3 °F 37.4 °F 71% 30.16 in 7.0 mi North 4.6 mph - N/A   Clear
6:15 AM 46.4 °F 42.4 °F 37.4 °F 71% 30.17 in 7.0 mi North 8.1 mph - N/A   Clear
6:35 AM 46.4 °F 43.5 °F 37.4 °F 71% 30.17 in 10.0 mi North 5.8 mph - N/A   Clear
6:55 AM 46.4 °F 43.5 °F 35.6 °F 66% 30.19 in 7.0 mi North 5.8 mph - N/A   Clear
7:15 AM 46.4 °F 43.5 °F 37.4 °F 71% 30.19 in 7.0 mi North 5.8 mph - N/A   Clear
7:35 AM 46.4 °F 42.9 °F 37.4 °F 71% 30.21 in 7.0 mi North 6.9 mph - N/A   Clear
7:55 AM 46.4 °F 42.4 °F 37.4 °F 71% 30.21 in 7.0 mi North 8.1 mph - N/A   Clear
8:15 AM 46.4 °F 41.5 °F 37.4 °F 71% 30.22 in 7.0 mi North 10.4 mph - N/A   Clear
8:35 AM 48.2 °F - 37.4 °F 66% 30.22 in 7.0 mi North 8.1 mph 16.1 mph N/A   Clear
8:55 AM 48.2 °F - 35.6 °F 62% 30.22 in 7.0 mi North 11.5 mph 16.1 mph N/A   Clear
9:15 AM 48.2 °F - 35.6 °F 62% 30.22 in 7.0 mi North 10.4 mph 16.1 mph N/A   Clear
9:35 AM 50.0 °F - 35.6 °F 58% 30.23 in 7.0 mi North 9.2 mph 16.1 mph N/A   Clear
9:55 AM 50.0 °F - 35.6 °F 58% 30.23 in 7.0 mi North 10.4 mph 16.1 mph N/A   Unknown
10:15 AM 51.8 °F - 35.6 °F 54% 30.23 in 7.0 mi North 9.2 mph 19.6 mph N/A   Unknown
10:35 AM 53.6 °F - 35.6 °F 51% 30.22 in 10.0 mi North 11.5 mph - N/A   Unknown
10:55 AM 55.4 °F - 35.6 °F 47% 30.22 in 10.0 mi North 10.4 mph 19.6 mph N/A   Unknown
11:15 AM 57.2 °F - 33.8 °F 41% 30.21 in 10.0 mi North 12.7 mph 18.4 mph N/A   Clear
11:35 AM 57.2 °F - 33.8 °F 41% 30.20 in 7.0 mi North 10.4 mph 17.3 mph N/A   Clear
11:55 AM 57.2 °F - 32.0 °F 38% 30.19 in 10.0 mi North 11.5 mph 19.6 mph N/A   Clear
12:15 PM 59.0 °F - 32.0 °F 36% 30.18 in 10.0 mi North 10.4 mph 16.1 mph N/A   Clear
12:35 PM 59.0 °F - 32.0 °F 36% 30.16 in 7.0 mi North 12.7 mph 19.6 mph N/A   Clear
12:55 PM 60.8 °F - 32.0 °F 34% 30.16 in 10.0 mi North 10.4 mph 16.1 mph N/A   Clear
1:15 PM 60.8 °F - 32.0 °F 34% 30.16 in 10.0 mi NNW 10.4 mph - N/A   Clear
1:35 PM 62.6 °F - 32.0 °F 32% 30.15 in 10.0 mi North 6.9 mph 16.1 mph N/A   Clear
1:55 PM 62.6 °F - 32.0 °F 32% 30.14 in 7.0 mi NNW 5.8 mph - N/A   Clear
2:15 PM 62.6 °F - 30.2 °F 30% 30.14 in 10.0 mi North 11.5 mph 17.3 mph N/A   Clear
2:35 PM 62.6 °F - 28.4 °F 27% 30.14 in 7.0 mi North 9.2 mph - N/A   Clear
2:55 PM 62.6 °F - 30.2 °F 30% 30.14 in 10.0 mi North 6.9 mph - N/A   Clear
3:15 PM 62.6 °F - 33.8 °F 34% 30.14 in 10.0 mi NNW 4.6 mph - N/A   Clear
3:35 PM 62.6 °F - 32.0 °F 32% 30.14 in 10.0 mi North 8.1 mph - N/A   Clear
4:15 PM 62.6 °F - 32.0 °F 32% 30.14 in 10.0 mi North 5.8 mph - N/A   Clear
5:15 PM 57.2 °F - 35.6 °F 44% 30.15 in 10.0 mi Calm Calm - N/A   Clear
5:35 PM 55.4 °F - 37.4 °F 51% 30.16 in 10.0 mi Calm Calm - N/A   Clear
5:55 PM 51.8 °F - 41.0 °F 67% 30.16 in 10.0 mi Calm Calm - N/A   Clear
6:15 PM 48.2 °F - 41.0 °F 76% 30.16 in 10.0 mi Calm Calm - N/A   Clear
6:35 PM 46.4 °F - 41.0 °F 81% 30.16 in 10.0 mi Calm Calm - N/A   Clear
6:55 PM 46.4 °F - 41.0 °F 81% 30.17 in 7.0 mi Calm Calm - N/A   Clear
7:35 PM 42.8 °F - 39.2 °F 87% 30.17 in 10.0 mi Calm Calm - N/A   Clear
7:55 PM 42.8 °F - 39.2 °F 87% 30.18 in 7.0 mi Calm Calm - N/A   Clear
8:15 PM 42.8 °F - 39.2 °F 87% 30.18 in 7.0 mi Calm Calm - N/A   Clear
8:35 PM 41.0 °F - 39.2 °F 93% 30.19 in 5.0 mi Calm Calm - N/A   Clear
8:55 PM 41.0 °F - 39.2 °F 93% 30.18 in 5.0 mi Calm Calm - N/A   Clear
9:15 PM 41.0 °F - 39.2 °F 93% 30.18 in 5.0 mi Calm Calm - N/A   Clear
9:35 PM 41.0 °F - 39.2 °F 93% 30.19 in 7.0 mi Calm Calm - N/A   Clear
9:55 PM 41.0 °F - 39.2 °F 93% 30.19 in 7.0 mi Calm Calm - N/A   Clear
10:15 PM 41.0 °F - 37.4 °F 87% 30.18 in 7.0 mi Calm Calm - N/A   Clear
10:35 PM 41.0 °F - 37.4 °F 87% 30.19 in 7.0 mi Calm Calm - N/A   Clear
10:55 PM 39.2 °F - 37.4 °F 93% 30.19 in 7.0 mi Calm Calm - N/A   Clear
11:15 PM 39.2 °F - 37.4 °F 93% 30.19 in 7.0 mi Calm Calm - N/A   Clear
11:35 PM 39.2 °F - 37.4 °F 93% 30.18 in 7.0 mi Calm Calm - N/A   Clear
11:55 PM 39.2 °F - 37.4 °F 93% 30.18 in 7.0 mi Calm Calm - N/A   Clear